Howell, MI

2:13 PM EDT on July 23, 2017 (GMT -0400)
Livingston County

Weather History for KOZW - May, 2013

Change the Weather History Date:

Saturday, May 4, 2013

  Actual Average Record
Temperature  
Mean Temperature 62 °F -  
Max Temperature 70 °F 65 °F 80 °F (2000)
Min Temperature 55 °F 44 °F 28 °F (2005)
Degree Days  
Heating Degree Days 2    
Growing Degree Days 12 (Base 50)    
Moisture  
Dew Point 41 °F    
Average Humidity 46    
Maximum Humidity 68    
Minimum Humidity 29    
Precipitation  
Precipitation 0.00 in - - ()
Sea Level Pressure  
Sea Level Pressure 30.09 in    
Wind  
Wind Speed 10 mph (ESE)    
Max Wind Speed 16 mph    
Max Gust Speed 23 mph    
Visibility 10 miles    
Events      
Averages and records for this station are not official NWS values.
T = Trace of Precipitation, MM = Missing Value Source: NWS Daily Summary

Daily Weather History Graph

Daily Weather History Graph

Search for Another Location

Airport or City:

Trip Planner

Search our weather history database for the weather conditions in past years. The results will help you decide how hot, cold, wet, or windy it might be!

Date:

Astronomy

May. 04, 2013 Rise Set
Actual Time 6:26 AM EDT 8:39 PM EDT
Civil Twilight 5:55 AM EDT 9:11 PM EDT
Nautical Twilight 5:16 AM EDT 9:49 PM EDT
Astronomical Twilight 4:34 AM EDT 10:32 PM EDT
Moon 3:31 AM EDT (5/4) 3:30 PM EDT (5/4)
Length of Visible Light 15h 15m
Length of Day
14h 13m
Waning Crescent, 27% of the Moon is Illuminated
May 4
Waning Crescent
May 9
New
May 18
First Quarter
May 25
Full
May 31
Last Quarter

Hourly Weather History & Observations

Time (EDT) Temp. Dew Point Humidity Pressure Visibility Wind Dir Wind Speed Gust Speed Precip Events Conditions
12:14 AM 61.3 °F 41.4 °F 48% 30.08 in 10.0 mi East 6.9 mph - N/A   Clear
12:35 AM 61.3 °F 41.7 °F 49% 30.08 in 10.0 mi East 8.1 mph - N/A   Clear
12:55 AM 61.7 °F 41.9 °F 48% 30.08 in 10.0 mi ESE 9.2 mph - N/A   Clear
1:15 AM 62.6 °F 41.9 °F 47% 30.08 in 10.0 mi ESE 10.4 mph - N/A   Clear
1:35 AM 62.4 °F 42.6 °F 48% 30.08 in 10.0 mi ESE 10.4 mph - N/A   Clear
1:55 AM 62.4 °F 42.8 °F 49% 30.08 in 10.0 mi ESE 10.4 mph 17.3 mph N/A   Clear
2:15 AM 62.1 °F 43.0 °F 50% 30.08 in 10.0 mi ESE 12.7 mph 17.3 mph N/A   Clear
2:35 AM 61.9 °F 43.3 °F 51% 30.08 in 10.0 mi ESE 11.5 mph - N/A   Clear
2:55 AM 61.3 °F 43.7 °F 52% 30.08 in 10.0 mi SE 11.5 mph - N/A   Clear
3:15 AM 60.6 °F 43.9 °F 54% 30.08 in 10.0 mi ESE 10.4 mph - N/A   Clear
3:35 AM 59.9 °F 44.1 °F 56% 30.08 in 10.0 mi ESE 10.4 mph - N/A   Clear
3:54 AM 59.7 °F 44.2 °F 57% 30.09 in 10.0 mi ESE 9.2 mph - N/A   Clear
4:15 AM 58.5 °F 44.6 °F 60% 30.09 in 10.0 mi ESE 9.2 mph - N/A   Clear
4:35 AM 57.9 °F 44.6 °F 61% 30.09 in 10.0 mi ESE 6.9 mph - N/A   Clear
4:54 AM 57.2 °F 45.0 °F 64% 30.09 in 10.0 mi ESE 8.1 mph - N/A   Clear
5:15 AM 56.7 °F 45.1 °F 65% 30.09 in 10.0 mi ESE 8.1 mph - N/A   Clear
5:34 AM 56.5 °F 45.5 °F 67% 30.09 in 10.0 mi ESE 6.9 mph - N/A   Clear
5:55 AM 55.8 °F 45.5 °F 68% 30.10 in 10.0 mi ESE 8.1 mph - N/A   Clear
6:15 AM 57.2 °F 45.7 °F 65% 30.10 in 10.0 mi ESE 8.1 mph - N/A   Clear
6:35 AM 56.7 °F 45.7 °F 67% 30.10 in 10.0 mi ESE 9.2 mph - N/A   Clear
6:55 AM 56.7 °F 46.0 °F 68% 30.11 in 10.0 mi ESE 6.9 mph - N/A   Clear
7:14 AM 57.0 °F 46.4 °F 68% 30.11 in 10.0 mi ESE 6.9 mph - N/A   Clear
7:35 AM 58.6 °F 46.6 °F 64% 30.11 in 10.0 mi ESE 9.2 mph - N/A   Clear
7:55 AM 60.3 °F 46.8 °F 61% 30.12 in 10.0 mi SE 10.4 mph - N/A   Clear
8:14 AM 61.0 °F 46.6 °F 59% 30.12 in 10.0 mi SE 10.4 mph - N/A   Clear
8:35 AM 61.7 °F 46.6 °F 58% 30.12 in 10.0 mi SE 10.4 mph - N/A   Clear
8:54 AM 62.2 °F 46.6 °F 57% 30.12 in 10.0 mi SE 10.4 mph - N/A   Clear
9:15 AM 63.1 °F 46.4 °F 54% 30.12 in 10.0 mi ESE 12.7 mph 17.3 mph N/A   Clear
9:35 AM 63.5 °F 46.0 °F 53% 30.12 in 10.0 mi SE 12.7 mph - N/A   Clear
9:54 AM 64.4 °F 46.0 °F 51% 30.12 in 10.0 mi ESE 10.4 mph - N/A   Clear
10:15 AM 64.9 °F 45.7 °F 50% 30.12 in 10.0 mi ESE 10.4 mph - N/A   Clear
10:35 AM 65.3 °F 45.5 °F 49% 30.12 in 10.0 mi SE 12.7 mph - N/A   Clear
10:54 AM 65.7 °F 45.9 °F 49% 30.12 in 10.0 mi East 9.2 mph 16.1 mph N/A   Clear
11:15 AM 65.5 °F 45.9 °F 49% 30.12 in 10.0 mi East 10.4 mph 16.1 mph N/A   Clear
11:34 AM 65.8 °F 45.5 °F 48% 30.12 in 10.0 mi East 11.5 mph 16.1 mph N/A   Clear
11:55 AM 66.2 °F 45.0 °F 46% 30.12 in 10.0 mi East 11.5 mph - N/A   Clear
12:14 PM 67.5 °F 45.0 °F 44% 30.12 in 10.0 mi East 8.1 mph 18.4 mph N/A   Clear
12:35 PM 68.0 °F 44.8 °F 43% 30.11 in 10.0 mi East 11.5 mph 16.1 mph N/A   Clear
12:55 PM 69.3 °F 43.9 °F 40% 30.10 in 10.0 mi East 13.8 mph 19.6 mph N/A   Clear
1:14 PM 70.0 °F 43.2 °F 38% 30.10 in 10.0 mi ENE 10.4 mph 18.4 mph N/A   Clear
1:40 PM 70.5 °F 40.1 °F 33% 30.10 in 10.0 mi ESE 10.4 mph 19.6 mph N/A   Clear
1:55 PM 70.7 °F 39.6 °F 32% 30.09 in 10.0 mi ESE 13.8 mph 17.3 mph N/A   Clear
2:15 PM 70.3 °F 41.4 °F 35% 30.09 in 10.0 mi ENE 12.7 mph 21.9 mph N/A   Clear
2:35 PM 70.5 °F 42.1 °F 36% 30.09 in 10.0 mi East 16.1 mph 21.9 mph N/A   Clear
2:54 PM 69.8 °F 40.8 °F 35% 30.08 in 10.0 mi ENE 13.8 mph 21.9 mph N/A   Clear
3:15 PM 69.6 °F 38.5 °F 32% 30.08 in 10.0 mi East 13.8 mph 21.9 mph N/A   Clear
3:35 PM 69.3 °F 36.9 °F 30% 30.08 in 10.0 mi ESE 16.1 mph 20.7 mph N/A   Clear
3:54 PM 69.8 °F 37.2 °F 30% 30.07 in 10.0 mi East 13.8 mph 19.6 mph N/A   Clear
4:15 PM 69.1 °F 36.7 °F 30% 30.07 in 10.0 mi East 15.0 mph 19.6 mph N/A   Clear
4:35 PM 70.3 °F 37.6 °F 30% 30.06 in 10.0 mi ESE 16.1 mph 21.9 mph N/A   Clear
4:55 PM 69.3 °F 36.1 °F 30% 30.06 in 10.0 mi East 16.1 mph - N/A   Clear
5:15 PM 69.3 °F 36.0 °F 29% 30.06 in 10.0 mi East 16.1 mph 23.0 mph N/A   Clear
5:35 PM 69.8 °F 36.1 °F 29% 30.06 in 10.0 mi ESE 13.8 mph 20.7 mph N/A   Clear
5:55 PM 68.7 °F 36.5 °F 31% 30.06 in 10.0 mi ESE 12.7 mph - N/A   Clear
6:15 PM 69.6 °F 36.5 °F 30% 30.06 in 10.0 mi East 16.1 mph 19.6 mph N/A   Clear
6:35 PM 69.1 °F 36.7 °F 30% 30.07 in 10.0 mi East 16.1 mph 20.7 mph N/A   Clear
6:55 PM 67.6 °F 36.1 °F 31% 30.06 in 10.0 mi East 15.0 mph 20.7 mph N/A   Clear
7:15 PM 66.2 °F 36.0 °F 33% 30.06 in 10.0 mi East 13.8 mph 18.4 mph N/A   Clear
7:34 PM 65.7 °F 36.1 °F 34% 30.06 in 10.0 mi East 10.4 mph - N/A   Clear
7:55 PM 65.3 °F 36.0 °F 34% 30.07 in 10.0 mi East 9.2 mph - N/A   Clear
8:15 PM 64.6 °F 35.6 °F 34% 30.07 in 10.0 mi East 8.1 mph - N/A   Clear
8:34 PM 63.7 °F 35.6 °F 35% 30.08 in 10.0 mi East 6.9 mph - N/A   Clear
8:55 PM 61.7 °F 36.0 °F 38% 30.08 in 10.0 mi East 5.8 mph - N/A   Clear
9:15 PM 61.0 °F 36.1 °F 40% 30.09 in 10.0 mi East 4.6 mph - N/A   Clear
9:35 PM 61.2 °F 36.0 °F 39% 30.09 in 10.0 mi East 5.8 mph - N/A   Clear
9:55 PM 60.1 °F 36.7 °F 42% 30.09 in 10.0 mi East 5.8 mph - N/A   Clear
10:15 PM 59.2 °F 36.9 °F 43% 30.10 in 10.0 mi East 5.8 mph - N/A   Clear
10:35 PM 59.5 °F 36.7 °F 43% 30.10 in 10.0 mi East 4.6 mph - N/A   Clear
10:55 PM 59.2 °F 37.0 °F 44% 30.10 in 10.0 mi East 4.6 mph - N/A   Clear
11:15 PM 58.5 °F 37.4 °F 45% 30.10 in 10.0 mi East 5.8 mph - N/A   Clear
11:35 PM 58.1 °F 38.3 °F 48% 30.10 in 10.0 mi East 5.8 mph - N/A   Clear
11:55 PM 58.3 °F 39.0 °F 49% 30.10 in 10.0 mi ESE 5.8 mph - N/A   Clear